Tracking 18840 objects as of 17-November-2017
HD Live streaming from Space Station
objects crossing your sky now

COSMOS 1235

Track COSMOS 1235 now!
10-day predictions
COSMOS 1235 is classified as:


NORAD ID: 12114
Int'l Code: 1980-102H
Perigee: 1,420.6 km
Apogee: 1,471.1 km
Inclination: 74.0 °
Period: 114.6 minutes
Semi major axis: 7816 km
RCS: 0.7012 m2 (medium)
Launch date: December 23, 1980
Source: Commonwealth of Independent States (former USSR) (CIS)
Launch site: PLESETSK MISSILE AND SPACE COMPLEX (PKMTR)
aabbcc
Your satellite tracking list
Your tracking list is empty




NASA's NSSDC Master Catalog

Two Line Element Set (TLE):
1 12114U 80102H   17320.90739170 -.00000029 +00000-0 -77071-4 0  9998
2 12114 073.9929 290.0549 0032297 174.4917 248.2979 12.56183387692007
Source of the keplerian elements: AFSPC